| time (UTC) | temp C | wind direction | speed KPH | gust KPH | rain 1hr cm | rain 24hr cm | rain mn cm | humidity % | barometer mb |
| 20260506224503 | 11 | 78 | 1.6 | 12.9 | 0.05 | 0.15 | 0.15 | 91 | 1014.2 |
| 20260506223833 | 12 | 36 | 3.2 | 12.9 | 0.05 | 0.15 | 0.15 | 92 | 1013.3 |
| 20260506223106 | 11 | 92 | 3.2 | 11.3 | 0.05 | 0.15 | 0.15 | 91 | 1013.2 |
| 20260506222933 | 12 | 39 | 1.6 | 11.3 | 0.05 | 0.15 | 0.15 | 91 | 1013.0 |
| 20260506222033 | 12 | 102 | 0.0 | 1.6 | 0.03 | 0.13 | 0.13 | 91 | 1013.7 |
| 20260506221612 | 11 | 321 | 0.0 | 3.2 | 0.03 | 0.13 | 0.13 | 91 | 1014.0 |
| 20260506221133 | 12 | 38 | 1.6 | 4.8 | 0.00 | 0.10 | 0.10 | 90 | 1013.8 |
| 20260506220233 | 12 | 34 | 0.0 | 4.8 | 0.00 | 0.10 | 0.10 | 90 | 1013.6 |
| 20260506220004 | 11 | 63 | 0.0 | 9.7 | 0.00 | 0.10 | 0.10 | 90 | 1013.9 |
| 20260506215333 | 12 | 2 | 4.8 | 12.9 | 0.00 | 0.10 | 0.10 | 90 | 1013.1 |
| 20260506214509 | 11 | 46 | 4.8 | 9.7 | 0.00 | 0.10 | 0.10 | 89 | 1013.2 |
| 20260506214433 | 12 | 8 | 3.2 | 6.4 | 0.00 | 0.10 | 0.10 | 90 | 1013.0 |
| 20260506213533 | 12 | 20 | 4.8 | 11.3 | 0.00 | 0.10 | 0.10 | 89 | 1013.0 |
| 20260506213003 | 11 | 100 | 3.2 | 14.5 | 0.00 | 0.10 | 0.10 | 89 | 1013.3 |
| 20260506212633 | 12 | 22 | 6.4 | 14.5 | 0.00 | 0.10 | 0.10 | 89 | 1012.7 |
| 20260506211733 | 12 | 19 | 6.4 | 12.9 | 0.00 | 0.10 | 0.10 | 89 | 1012.3 |
| 20260506211604 | 12 | 360 | 6.4 | 14.5 | 0.00 | 0.10 | 0.10 | 89 | 1012.6 |
| 20260506210833 | 12 | 38 | 6.4 | 17.7 | 0.00 | 0.10 | 0.10 | 89 | 1012.2 |
| 20260506210006 | 12 | 61 | 4.8 | 11.3 | 0.00 | 0.10 | 0.10 | 89 | 1012.4 |
| 20260506205933 | 12 | 52 | 6.4 | 14.5 | 0.00 | 0.10 | 0.10 | 89 | 1012.2 |
| 20260506205033 | 12 | 32 | 6.4 | 16.1 | 0.00 | 0.10 | 0.10 | 88 | 1012.6 |
| 20260506204604 | 12 | 39 | 6.4 | 16.1 | 0.00 | 0.10 | 0.10 | 88 | 1012.8 |
| 20260506204133 | 12 | 8 | 4.8 | 17.7 | 0.00 | 0.10 | 0.10 | 88 | 1012.6 |
| 20260506203233 | 12 | 60 | 3.2 | 11.3 | 0.00 | 0.10 | 0.10 | 88 | 1012.8 |
| 20260506203003 | 12 | 196 | 4.8 | 11.3 | 0.00 | 0.10 | 0.10 | 88 | 1012.9 |
| 20260506202333 | 12 | 44 | 4.8 | 12.9 | 0.00 | 0.10 | 0.10 | 88 | 1012.3 |
| 20260506201511 | 12 | 148 | 6.4 | 16.1 | 0.00 | 0.10 | 0.10 | 88 | 1012.8 |
| 20260506201433 | 12 | 63 | 4.8 | 16.1 | 0.00 | 0.10 | 0.10 | 88 | 1012.7 |
| 20260506200533 | 12 | 38 | 4.8 | 16.1 | 0.00 | 0.10 | 0.10 | 88 | 1012.5 |
| 20260506200005 | 12 | 12 | 3.2 | 16.1 | 0.00 | 0.10 | 0.10 | 89 | 1012.6 |
| 20260506195633 | 12 | 24 | 4.8 | 17.7 | 0.00 | 0.10 | 0.10 | 89 | 1012.3 |
| 20260506194733 | 12 | 34 | 6.4 | 19.3 | 0.00 | 0.10 | 0.10 | 89 | 1011.9 |
| 20260506194604 | 12 | 28 | 6.4 | 19.3 | 0.00 | 0.10 | 0.10 | 89 | 1012.0 |
| 20260506193833 | 12 | 34 | 6.4 | 19.3 | 0.00 | 0.10 | 0.10 | 88 | 1012.3 |
| 20260506193004 | 12 | 317 | 6.4 | 24.1 | 0.00 | 0.10 | 0.10 | 88 | 1012.4 |
| 20260506192933 | 12 | 44 | 8.0 | 22.5 | 0.00 | 0.10 | 0.10 | 88 | 1012.3 |
| 20260506191603 | 12 | 32 | 9.7 | 20.9 | 0.00 | 0.10 | 0.10 | 88 | 1011.8 |
| 20260506191133 | 12 | 51 | 8.0 | 16.1 | 0.00 | 0.10 | 0.10 | 89 | 1012.2 |
| 20260506190233 | 12 | 65 | 9.7 | 25.7 | 0.03 | 0.10 | 0.10 | 91 | 1012.0 |
| 20260506190008 | 12 | 360 | 12.9 | 25.7 | 0.03 | 0.10 | 0.10 | 90 | 1011.9 |
| 20260506185333 | 12 | 89 | 9.7 | 25.7 | 0.05 | 0.10 | 0.10 | 91 | 1011.5 |
| 20260506184503 | 12 | 155 | 6.4 | 22.5 | 0.05 | 0.10 | 0.10 | 92 | 1011.7 |
| 20260506184433 | 12 | 70 | 4.8 | 22.5 | 0.05 | 0.10 | 0.10 | 92 | 1011.7 |
| 20260506183106 | 12 | 116 | 4.8 | 12.9 | 0.08 | 0.10 | 0.10 | 92 | 1014.0 |
| 20260506182633 | 12 | 48 | 4.8 | 12.9 | 0.08 | 0.10 | 0.10 | 93 | 1013.5 |
| 20260506181733 | 12 | 43 | 3.2 | 12.9 | 0.08 | 0.10 | 0.10 | 93 | 1013.5 |
| 20260506181508 | 11 | 130 | 3.2 | 12.9 | 0.08 | 0.10 | 0.10 | 93 | 1013.7 |
| 20260506180833 | 12 | 103 | 3.2 | 11.3 | 0.08 | 0.10 | 0.10 | 92 | 1014.0 |
| 20260506180104 | 11 | 225 | 1.6 | 11.3 | 0.05 | 0.08 | 0.08 | 91 | 1015.3 |
| 20260506175933 | 11 | 347 | 6.4 | 11.3 | 0.05 | 0.08 | 0.08 | 91 | 1015.1 |
| 20260506175033 | 12 | 354 | 4.8 | 12.9 | 0.03 | 0.05 | 0.05 | 90 | 1014.9 |
| 20260506174604 | 11 | 10 | 1.6 | 12.9 | 0.03 | 0.05 | 0.05 | 89 | 1014.8 |
| 20260506174133 | 12 | 70 | 3.2 | 16.1 | 0.03 | 0.05 | 0.05 | 89 | 1013.9 |
| 20260506173233 | 12 | 85 | 6.4 | 16.1 | 0.00 | 0.03 | 0.03 | 89 | 1014.0 |
| 20260506173113 | 12 | 120 | 6.4 | 16.1 | 0.00 | 0.03 | 0.03 | 89 | 1014.2 |
| 20260506172333 | 12 | 36 | 3.2 | 9.7 | 0.00 | 0.03 | 0.03 | 88 | 1015.2 |
| 20260506171505 | 12 | 255 | 1.6 | 14.5 | 0.00 | 0.03 | 0.03 | 89 | 1015.7 |
| 20260506171433 | 12 | 337 | 6.4 | 12.9 | 0.00 | 0.03 | 0.03 | 89 | 1015.5 |
| 20260506170533 | 12 | 15 | 6.4 | 14.5 | 0.00 | 0.03 | 0.03 | 89 | 1013.2 |
| 20260506170103 | 12 | 360 | 4.8 | 14.5 | 0.00 | 0.03 | 0.03 | 89 | 1013.3 |
| 20260506165633 | 12 | 21 | 6.4 | 16.1 | 0.00 | 0.03 | 0.03 | 89 | 1013.5 |
| 20260506164507 | 12 | 42 | 6.4 | 14.5 | 0.00 | 0.03 | 0.03 | 89 | 1014.6 |
| 20260506163833 | 12 | 92 | 3.2 | 8.0 | 0.00 | 0.03 | 0.03 | 90 | 1014.4 |
| 20260506163003 | 12 | 136 | 1.6 | 19.3 | 0.00 | 0.03 | 0.03 | 90 | 1014.4 |
| 20260506162933 | 12 | 33 | 8.0 | 19.3 | 0.00 | 0.03 | 0.03 | 90 | 1014.2 |
| 20260506162033 | 12 | 29 | 6.4 | 16.1 | 0.00 | 0.03 | 0.03 | 90 | 1013.3 |
| 20260506161604 | 12 | 355 | 4.8 | 17.7 | 0.00 | 0.03 | 0.03 | 91 | 1013.9 |
| 20260506161133 | 12 | 25 | 6.4 | 17.7 | 0.00 | 0.03 | 0.03 | 91 | 1013.5 |
| 20260506160233 | 12 | 48 | 3.2 | 12.9 | 0.00 | 0.03 | 0.03 | 91 | 1013.2 |
| 20260506160004 | 12 | 28 | 3.2 | 12.9 | 0.00 | 0.03 | 0.03 | 91 | 1013.3 |
| 20260506155333 | 12 | 39 | 4.8 | 12.9 | 0.00 | 0.03 | 0.03 | 91 | 1013.3 |
| 20260506154504 | 12 | 12 | 4.8 | 8.0 | 0.00 | 0.03 | 0.03 | 91 | 1013.5 |
| 20260506154433 | 12 | 47 | 4.8 | 9.7 | 0.00 | 0.03 | 0.03 | 91 | 1013.3 |
| 20260506153533 | 12 | 37 | 6.4 | 17.7 | 0.00 | 0.03 | 0.03 | 91 | 1013.2 |
| 20260506153115 | 12 | 309 | 1.6 | 19.3 | 0.00 | 0.03 | 0.03 | 91 | 1013.3 |
| 20260506152633 | 13 | 39 | 6.4 | 20.9 | 0.00 | 0.03 | 0.03 | 92 | 1013.0 |
| 20260506151733 | 13 | 32 | 4.8 | 11.3 | 0.00 | 0.03 | 0.03 | 92 | 1012.9 |
| 20260506151503 | 13 | 325 | 1.6 | 12.9 | 0.00 | 0.03 | 0.03 | 92 | 1012.9 |
| 20260506150833 | 13 | 62 | 3.2 | 14.5 | 0.00 | 0.03 | 0.03 | 93 | 1012.8 |
| 20260506150004 | 13 | 145 | 3.2 | 16.1 | 0.00 | 0.03 | 0.03 | 93 | 1012.4 |
| 20260506145933 | 13 | 49 | 4.8 | 16.1 | 0.00 | 0.03 | 0.03 | 92 | 1012.3 |
| 20260506145032 | 13 | 33 | 4.8 | 12.9 | 0.03 | 0.03 | 0.03 | 93 | 1012.3 |
| 20260506144613 | 13 | 23 | 6.4 | 17.7 | 0.03 | 0.03 | 0.03 | 93 | 1012.1 |
| 20260506143233 | 14 | 62 | 4.8 | 17.7 | 0.03 | 0.03 | 0.03 | 93 | 1011.8 |
| 20260506143104 | 13 | 73 | 1.6 | 17.7 | 0.03 | 0.03 | 0.03 | 93 | 1011.9 |
| 20260506142334 | 14 | 73 | 4.8 | 12.9 | 0.03 | 0.03 | 0.03 | 93 | 1011.9 |
| 20260506141507 | 14 | 115 | 1.6 | 14.5 | 0.03 | 0.03 | 0.03 | 93 | 1012.0 |
| 20260506141433 | 15 | 52 | 6.4 | 14.5 | 0.03 | 0.03 | 0.03 | 93 | 1011.8 |
| 20260506140533 | 15 | 48 | 6.4 | 16.1 | 0.03 | 0.03 | 0.03 | 93 | 1011.5 |
| 20260506140107 | 14 | 51 | 4.8 | 24.1 | 0.03 | 0.03 | 0.03 | 93 | 1011.6 |
| 20260506134732 | 15 | 24 | 6.4 | 16.1 | 0.00 | 0.00 | 0.00 | 93 | 1011.5 |
| 20260506134509 | 15 | 355 | 3.2 | 17.7 | 0.00 | 0.00 | 0.00 | 93 | 1011.7 |
| 20260506133104 | 15 | 48 | 6.4 | 20.9 | 0.00 | 0.00 | 0.00 | 92 | 1011.5 |
| 20260506132933 | 15 | 27 | 8.0 | 20.9 | 0.00 | 0.00 | 0.00 | 92 | 1011.5 |
| 20260506132033 | 16 | 20 | 4.8 | 14.5 | 0.00 | 0.00 | 0.00 | 93 | 1011.2 |
| 20260506131603 | 16 | 337 | 3.2 | 12.9 | 0.00 | 0.00 | 0.00 | 93 | 1011.1 |
| 20260506131132 | 16 | 29 | 4.8 | 11.3 | 0.00 | 0.00 | 0.00 | 92 | 1010.7 |
| 20260506130005 | 16 | 11 | 3.2 | 11.3 | 0.00 | 0.00 | 0.00 | 92 | 1010.7 |
| 20260506125332 | 17 | 27 | 3.2 | 8.0 | 0.00 | 0.00 | 0.00 | 92 | 1010.9 |
| 20260506124503 | 17 | 44 | 3.2 | 9.7 | 0.00 | 0.00 | 0.00 | 91 | 1010.6 |
| 20260506124433 | 17 | 38 | 4.8 | 9.7 | 0.00 | 0.00 | 0.00 | 91 | 1010.6 |
| 20260506123533 | 17 | 28 | 3.2 | 11.3 | 0.00 | 0.00 | 0.00 | 91 | 1010.2 |
| 20260506123004 | 17 | 335 | 1.6 | 8.0 | 0.00 | 0.00 | 0.00 | 91 | 1010.2 |
| 20260506122633 | 17 | 86 | 0.0 | 4.8 | 0.00 | 0.00 | 0.00 | 90 | 1010.2 |
| 20260506121732 | 17 | 318 | 0.0 | 3.2 | 0.00 | 0.00 | 0.00 | 89 | 1010.0 |
| 20260506121505 | 17 | 318 | 0.0 | 4.8 | 0.00 | 0.00 | 0.00 | 89 | 1010.0 |
| 20260506120016 | 17 | 292 | 0.0 | 1.6 | 0.00 | 0.00 | 0.00 | 88 | 1009.5 |
| 20260506115933 | 17 | 299 | 1.6 | 4.8 | 0.00 | 0.00 | 0.00 | 88 | 1009.4 |
| 20260506115033 | 17 | 306 | 3.2 | 8.0 | 0.00 | 0.00 | 0.00 | 88 | 1009.2 |
| 20260506114614 | 17 | 304 | 3.2 | 6.4 | 0.00 | 0.00 | 0.00 | 88 | 1009.2 |
| 20260506114132 | 17 | 316 | 3.2 | 6.4 | 0.00 | 0.00 | 0.00 | 88 | 1009.2 |
| 20260506113232 | 17 | 333 | 0.0 | 4.8 | 0.00 | 0.00 | 0.00 | 88 | 1008.7 |
| 20260506113023 | 17 | 333 | 0.0 | 3.2 | 0.00 | 0.00 | 0.00 | 88 | 1008.7 |
| 20260506112332 | 17 | 317 | 1.6 | 4.8 | 0.00 | 0.00 | 0.00 | 88 | 1008.7 |
| 20260506111604 | 17 | 306 | 0.0 | 6.4 | 0.00 | 0.00 | 0.00 | 88 | 1008.7 |
| 20260506111432 | 17 | 278 | 1.6 | 6.4 | 0.00 | 0.00 | 0.00 | 88 | 1008.6 |
| 20260506110006 | 17 | 166 | 0.0 | 1.6 | 0.00 | 0.00 | 0.00 | 88 | 1008.1 |
| 20260506105632 | 17 | 166 | 0.0 | 1.6 | 0.00 | 0.00 | 0.00 | 89 | 1008.2 |
| 20260506104732 | 18 | 166 | 0.0 | 1.6 | 0.00 | 0.00 | 0.00 | 89 | 1008.1 |
| 20260506104503 | 17 | 166 | 0.0 | 3.2 | 0.00 | 0.00 | 0.00 | 88 | 1008.2 |
| 20260506103832 | 18 | 176 | 1.6 | 3.2 | 0.00 | 0.00 | 0.00 | 89 | 1008.0 |
| 20260506103104 | 17 | 316 | 0.0 | 3.2 | 0.00 | 0.00 | 0.00 | 88 | 1007.9 |
| 20260506102932 | 18 | 316 | 0.0 | 1.6 | 0.00 | 0.00 | 0.00 | 88 | 1007.8 |
| 20260506102034 | 18 | 316 | 0.0 | 3.2 | 0.00 | 0.00 | 0.00 | 87 | 1007.6 |
| 20260506101606 | 17 | 316 | 0.0 | 3.2 | 0.00 | 0.00 | 0.00 | 87 | 1007.6 |
| 20260506101132 | 18 | 316 | 0.0 | 1.6 | 0.00 | 0.00 | 0.00 | 87 | 1007.6 |
| 20260506100232 | 18 | 274 | 0.0 | 1.6 | 0.00 | 0.00 | 0.00 | 87 | 1007.5 |
| 20260506100104 | 18 | 316 | 0.0 | 3.2 | 0.00 | 0.00 | 0.00 | 87 | 1007.5 |
| 20260506095332 | 18 | 209 | 0.0 | 4.8 | 0.00 | 0.00 | 0.00 | 87 | 1007.6 |
| 20260506094506 | 18 | 316 | 0.0 | 1.6 | 0.00 | 0.00 | 0.00 | 86 | 1007.4 |
| 20260506094432 | 18 | 316 | 0.0 | 1.6 | 0.00 | 0.00 | 0.00 | 86 | 1007.3 |
| 20260506093003 | 18 | 316 | 0.0 | 3.2 | 0.00 | 0.00 | 0.00 | 86 | 1007.5 |
| 20260506092632 | 18 | 316 | 0.0 | 3.2 | 0.00 | 0.00 | 0.00 | 86 | 1007.4 |
| 20260506091732 | 18 | 0 | 0.0 | 0.0 | 0.00 | 0.00 | 0.00 | 86 | 1007.2 |
| 20260506091603 | 18 | 316 | 0.0 | 0.0 | 0.00 | 0.00 | 0.00 | 86 | 1007.1 |
| 20260506090832 | 18 | 316 | 0.0 | 1.6 | 0.00 | 0.00 | 0.00 | 85 | 1007.0 |
| 20260506090005 | 18 | 316 | 0.0 | 3.2 | 0.00 | 0.00 | 0.00 | 85 | 1007.0 |
| 20260506085932 | 18 | 316 | 0.0 | 3.2 | 0.00 | 0.00 | 0.00 | 85 | 1007.0 |
| 20260506085032 | 18 | 358 | 0.0 | 3.2 | 0.00 | 0.00 | 0.00 | 85 | 1006.8 |
| 20260506084609 | 18 | 311 | 0.0 | 3.2 | 0.00 | 0.00 | 0.00 | 84 | 1006.8 |
| 20260506084132 | 18 | 249 | 0.0 | 3.2 | 0.00 | 0.00 | 0.00 | 84 | 1006.8 |
| 20260506083232 | 18 | 248 | 0.0 | 4.8 | 0.00 | 0.00 | 0.00 | 83 | 1006.6 |
| 20260506083103 | 18 | 248 | 0.0 | 4.8 | 0.00 | 0.00 | 0.00 | 83 | 1006.7 |
| 20260506082332 | 18 | 299 | 1.6 | 6.4 | 0.00 | 0.00 | 0.00 | 83 | 1006.6 |
| 20260506081503 | 18 | 263 | 0.0 | 6.4 | 0.00 | 0.00 | 0.00 | 83 | 1006.6 |
| 20260506080532 | 19 | 312 | 4.8 | 12.9 | 0.00 | 0.00 | 0.00 | 82 | 1006.6 |
| 20260506080108 | 19 | 280 | 3.2 | 12.9 | 0.00 | 0.00 | 0.00 | 82 | 1006.6 |
| 20260506073103 | 21 | 306 | 4.8 | 19.3 | 0.00 | 0.00 | 0.00 | 83 | 1006.1 |
| 20260506071607 | 22 | 198 | 1.6 | 6.4 | 0.00 | 0.00 | 0.00 | 85 | 1005.8 |
| 20260506071132 | 22 | 228 | 1.6 | 6.4 | 0.00 | 0.00 | 0.00 | 86 | 1005.8 |
| 20260506070232 | 22 | 228 | 1.6 | 4.8 | 0.00 | 0.00 | 0.00 | 87 | 1005.5 |
| 20260506061732 | 23 | 154 | 0.0 | 3.2 | 0.00 | 0.00 | 0.00 | 88 | 1005.3 |
| 20260506061604 | 23 | 155 | 0.0 | 3.2 | 0.00 | 0.00 | 0.00 | 88 | 1005.2 |
| 20260506050532 | 23 | 177 | 3.2 | 6.4 | 0.00 | 0.00 | 0.00 | 88 | 1005.1 |
| 20260506050108 | 23 | 160 | 1.6 | 6.4 | 0.00 | 0.00 | 0.00 | 88 | 1005.0 |
| 20260506044604 | 23 | 187 | 0.0 | 1.6 | 0.00 | 0.00 | 0.00 | 87 | 1005.1 |
| 20260506043832 | 23 | 188 | 0.0 | 3.2 | 0.00 | 0.00 | 0.00 | 87 | 1005.1 |
| 20260506043005 | 23 | 187 | 0.0 | 3.2 | 0.00 | 0.00 | 0.00 | 87 | 1005.0 |
| 20260506042932 | 23 | 241 | 0.0 | 3.2 | 0.00 | 0.00 | 0.00 | 87 | 1005.0 |
| 20260506042032 | 23 | 190 | 1.6 | 6.4 | 0.00 | 0.00 | 0.00 | 87 | 1005.3 |
| 20260506041508 | 23 | 185 | 0.0 | 6.4 | 0.00 | 0.00 | 0.00 | 87 | 1004.4 |
| 20260506041132 | 23 | 149 | 0.0 | 6.4 | 0.00 | 0.00 | 0.00 | 87 | 1004.5 |
| 20260506040232 | 23 | 184 | 0.0 | 3.2 | 0.00 | 0.00 | 0.00 | 87 | 1005.1 |
| 20260506040002 | 23 | 183 | 0.0 | 3.2 | 0.00 | 0.00 | 0.00 | 87 | 1005.1 |
| 20260506035332 | 23 | 194 | 0.0 | 4.8 | 0.00 | 0.00 | 0.00 | 87 | 1005.1 |
| 20260506034517 | 23 | 183 | 0.0 | 3.2 | 0.00 | 0.00 | 0.00 | 87 | 1005.2 |
| 20260506034432 | 23 | 165 | 0.0 | 3.2 | 0.00 | 0.00 | 0.00 | 87 | 1005.1 |
| 20260506033532 | 23 | 151 | 0.0 | 1.6 | 0.00 | 0.00 | 0.00 | 86 | 1004.7 |
| 20260506033105 | 23 | 151 | 0.0 | 1.6 | 0.00 | 0.00 | 0.00 | 86 | 1004.3 |
| 20260506032632 | 23 | 151 | 0.0 | 3.2 | 0.00 | 0.00 | 0.00 | 85 | 1004.6 |
| 20260506031732 | 23 | 151 | 0.0 | 3.2 | 0.00 | 0.00 | 0.00 | 85 | 1004.7 |
| 20260506031609 | 23 | 151 | 0.0 | 3.2 | 0.00 | 0.00 | 0.00 | 85 | 1004.7 |
| 20260506030832 | 24 | 170 | 0.0 | 1.6 | 0.00 | 0.00 | 0.00 | 85 | 1004.6 |
| 20260506030104 | 23 | 215 | 0.0 | 1.6 | 0.00 | 0.00 | 0.00 | 85 | 1004.6 |
| 20260506025032 | 24 | 212 | 0.0 | 3.2 | 0.00 | 0.00 | 0.00 | 84 | 1004.6 |
| 20260506024510 | 24 | 192 | 0.0 | 1.6 | 0.00 | 0.00 | 0.00 | 84 | 1004.0 |
| 20260506024132 | 24 | 193 | 0.0 | 1.6 | 0.00 | 0.00 | 0.00 | 84 | 1003.8 |
| 20260506023232 | 24 | 193 | 0.0 | 3.2 | 0.00 | 0.00 | 0.00 | 83 | 1004.0 |
| 20260506023102 | 24 | 192 | 0.0 | 3.2 | 0.00 | 0.00 | 0.00 | 83 | 1004.0 |
| 20260506022332 | 24 | 193 | 0.0 | 3.2 | 0.00 | 0.00 | 0.00 | 83 | 1004.0 |
| 20260506021604 | 24 | 192 | 0.0 | 6.4 | 0.00 | 0.00 | 0.00 | 83 | 1003.9 |
| 20260506021432 | 24 | 184 | 3.2 | 6.4 | 0.00 | 0.00 | 0.00 | 83 | 1003.9 |
| 20260506020008 | 24 | 188 | 3.2 | 8.0 | 0.00 | 0.00 | 0.00 | 84 | 1003.9 |
| 20260506015632 | 24 | 179 | 3.2 | 9.7 | 0.00 | 0.00 | 0.00 | 83 | 1003.9 |
| 20260506014732 | 25 | 156 | 1.6 | 6.4 | 0.00 | 0.00 | 0.00 | 83 | 1003.8 |
| 20260506014602 | 24 | 180 | 1.6 | 4.8 | 0.00 | 0.00 | 0.00 | 83 | 1003.7 |
| 20260506013832 | 25 | 157 | 0.0 | 3.2 | 0.00 | 0.00 | 0.00 | 82 | 1003.7 |
| 20260506013111 | 25 | 157 | 0.0 | 4.8 | 0.00 | 0.00 | 0.00 | 82 | 1003.9 |
| 20260506012932 | 25 | 166 | 1.6 | 4.8 | 0.00 | 0.00 | 0.00 | 82 | 1004.0 |
| 20260506011611 | 25 | 229 | 0.0 | 0.0 | 0.00 | 0.00 | 0.00 | 81 | 1003.7 |
| 20260506010232 | 26 | 0 | 0.0 | 0.0 | 0.00 | 0.00 | 0.00 | 80 | 1003.9 |
| 20260506010010 | 26 | 229 | 0.0 | 0.0 | 0.00 | 0.00 | 0.00 | 79 | 1003.8 |
| 20260506005332 | 26 | 235 | 0.0 | 3.2 | 0.00 | 0.00 | 0.00 | 78 | 1003.8 |
| 20260506004504 | 26 | 244 | 0.0 | 3.2 | 0.00 | 0.00 | 0.00 | 78 | 1003.7 |
| 20260506004432 | 26 | 215 | 0.0 | 3.2 | 0.00 | 0.00 | 0.00 | 78 | 1003.6 |
| 20260506003532 | 26 | 134 | 0.0 | 1.6 | 0.00 | 0.00 | 0.00 | 78 | 1003.1 |
| 20260506003105 | 26 | 134 | 0.0 | 0.0 | 0.00 | 0.00 | 0.00 | 78 | 1003.2 |
| 20260506002632 | 27 | 134 | 0.0 | 1.6 | 0.00 | 0.00 | 0.00 | 76 | 1003.4 |
| 20260506001732 | 27 | 134 | 0.0 | 3.2 | 0.00 | 0.00 | 0.00 | 76 | 1003.2 |
| 20260506001505 | 26 | 134 | 0.0 | 3.2 | 0.00 | 0.00 | 0.00 | 75 | 1003.2 |
| 20260506000832 | 27 | 154 | 0.0 | 1.6 | 0.00 | 0.00 | 0.00 | 75 | 1003.5 |
| 20260506000005 | 27 | 173 | 0.0 | 3.2 | 0.00 | 0.00 | 0.00 | 75 | 1003.4 |
| 20260505235932 | 27 | 200 | 0.0 | 3.2 | 0.00 | 0.00 | 0.00 | 75 | 1003.5 |
| 20260505235032 | 27 | 183 | 3.2 | 6.4 | 0.00 | 0.00 | 0.00 | 74 | 1003.5 |
| 20260505234507 | 27 | 213 | 1.6 | 9.7 | 0.00 | 0.00 | 0.00 | 73 | 1003.4 |
| 20260505234132 | 27 | 184 | 4.8 | 9.7 | 0.00 | 0.00 | 0.00 | 73 | 1003.3 |
| 20260505233232 | 27 | 175 | 4.8 | 11.3 | 0.00 | 0.00 | 0.00 | 73 | 1003.0 |
| 20260505233004 | 27 | 188 | 3.2 | 11.3 | 0.00 | 0.00 | 0.00 | 73 | 1003.1 |
| 20260505232332 | 27 | 185 | 4.8 | 14.5 | 0.00 | 0.00 | 0.00 | 72 | 1003.0 |
| 20260505231504 | 27 | 200 | 1.6 | 6.4 | 0.00 | 0.00 | 0.00 | 73 | 1003.0 |
| 20260505231432 | 27 | 183 | 3.2 | 6.4 | 0.00 | 0.00 | 0.00 | 73 | 1003.0 |
| 20260505230532 | 28 | 187 | 1.6 | 8.0 | 0.00 | 0.00 | 0.00 | 72 | 1002.9 |
| 20260505230007 | 28 | 184 | 1.6 | 9.7 | 0.00 | 0.00 | 0.00 | 72 | 1002.9 |
| 20260505225632 | 28 | 187 | 0.0 | 3.2 | 0.00 | 0.00 | 0.00 | 72 | 1002.9 |
| 20260505224732 | 28 | 177 | 1.6 | 6.4 | 0.00 | 0.00 | 0.00 | 71 | 1003.0 |